LFLCLFLW

Guest
Details From LFLC - Clermont-Ferrand_Auvergne
To LFLW - Aurillac
Flight Number -
Tags generated
Created
Modified
Stats Distance 63 nm / 117 km
Max Altitude 7,400 ft / 2,256 m
Waypoints 3
Social Downloads 0
Likes 0
Share VATSIM

Download

Looking for another format? Having issues loading an existing format? Contact us
Advertisement - Login to hide

Notes

Basic altitude profile: - Ascent Rate: 2500ft/min - Ascent Speed: 250kts - Cruise Altitude: 35000ft - Cruise Speed: 420kts - Descent Rate: 1500ft/min - Descent Speed: 250kts Options: - Use NATs: no - Use PACOTS: no - Use low airways: no - Use high airways: yes

Route

LFLC ADATU LFLW

ID Type Via Altitude Latitude Longitude Leg Dist Tot Dist Heading (true) Name
O LFLC APT - 0 ft / 0 m 45.78671˚ 3.16997˚ - 0 nm - Clermont-Ferrand_Auvergne
ADATU FIX - 7,400 ft / 2,256 m 45.53722˚ 2.82556˚ 20 nm 20 nm 224° / 224° -
O LFLW APT - 0 ft / 0 m 44.89142˚ 2.42219˚ 42 nm 63 nm 204° / 204° Aurillac

Altitude Profile

Advertisement - Login to hide

LFLC

Details ICAO LFLC (CFE)
Name Clermont-Ferrand_Auvergne
Region France
Timezone Europe/Paris (UTC+1.0)
Stats Elevation 1,089 ft / 332 m (AMSL)
Location 45.786712° 3.169967°
Runways 1
Magnetic Variation 0.981° E

METAR

LFLC 181430Z AUTO 01011KT 330V040 9999 FEW018 SCT034 BKN047 07/04 Q1023 NOSIG

Decode

TAF

TAF LFLC 181400Z 1815/1915 33007KT 9999 SCT020 BKN035 BECMG 1815/1816 36010KT BKN030 BECMG 1817/1819 OVC010

Decode

Departure Runways

ID Width Length Bearing (true) Bearing (mag) Surface Threshold Offset Overrun Length
08 148 ft / 45 m 9,878 ft / 3,011 m 81.95° 80.97° Asphalt 0 ft / 0 m 0 ft / 0 m
26 148 ft / 45 m 9,878 ft / 3,011 m 261.98° 261.00° Asphalt 476 ft / 145 m 0 ft / 0 m

LFLW

Details ICAO LFLW (AUR)
Name Aurillac
Region France
Timezone Europe/Paris (UTC+1.0)
Stats Elevation 2,096 ft / 639 m (AMSL)
Location 44.891416° 2.422195°
Runways 1
Magnetic Variation 0.812° E

METAR

LFLW 181430Z AUTO 35007KT 310V020 9999 FEW007 SCT024 05/05 Q1021 NOSIG

Decode

TAF

Not found

Destination Runways

ID Width Length Bearing (true) Bearing (mag) Surface Threshold Offset Overrun Length
15 98 ft / 30 m 5,430 ft / 1,655 m 150.01° 149.20° Asphalt 0 ft / 0 m 0 ft / 0 m
33 98 ft / 30 m 5,430 ft / 1,655 m 330.01° 329.20° Asphalt 0 ft / 0 m 0 ft / 0 m

Approach Navaids

Runway Type Ident Frequency Range Bearing (true) Bearing (mag) Slope Elevation
15 Localiser AR 110.30 MHz 18 nm / 33 km 150.87° 150.06° - 2,057 ft / 627 m (AMSL)
15 Glidescope AR 110.30 MHz 10 nm / 19 km 150.01° 149.20° 3.00° 2,106 ft / 642 m (AMSL)

Popular Alternatives